Address 0x50f780ff8774d90d45bb14ee9bc4d8eb97eecd8b

 
Txn Hash
Block
From
To
Value [Txn Fee]
0x4eed4331ce4c94eaf52909f95bfdbc9c94b55db92f59877839f3480cf0f53c2b81870002021-06-10 22:09:162 days 15 hrs ago0x50f780ff8774d90d45bb14ee9bc4d8eb97eecd8bOUT0xc37eea6ec449fdd2fae6ead2f46f4ba25c24f3a60.01351998 BNB0.000105
0x1fa445e04c73c125f7133730159eb99a1bbcdd7dfeffea1ebf23bae5417ed03b81869832021-06-10 22:08:252 days 15 hrs ago0x50f780ff8774d90d45bb14ee9bc4d8eb97eecd8bOUT 0x7322cc8b45cf8bda4b20cef958b873db7e8d570a0 BNB0.00018164
0xae282bb325c74f23d6479c1f5a005b08ff1af8ecd1a7e21be14efff0c3d2bceb81869772021-06-10 22:08:072 days 15 hrs ago0x50f780ff8774d90d45bb14ee9bc4d8eb97eecd8bOUT 0xb3692fb2487e6c67cf50d81132eb3a1e49772b5f0 BNB0.00018018
0x39da7b7f89661b36c7751fe273a87ba296f071530bc8293402cdb81beee3042381869642021-06-10 22:07:282 days 15 hrs ago0x50f780ff8774d90d45bb14ee9bc4d8eb97eecd8bOUT 0x319bf3bb8ab93658074be595c4aa55cd60380af70 BNB0.00017956
0x8326726eaaa63bef00b2a6c6e5b95b73ce33482cdbfb431c1dabfe2b6602e0dd81869572021-06-10 22:07:072 days 15 hrs ago0x50f780ff8774d90d45bb14ee9bc4d8eb97eecd8bOUT 0x10b7be52636882d7eca1611144a9df7642f95b5d0 BNB0.00018048
0x6775470af5964d7e8780f059d4995ff456f2ac4b745cdcf961ec8934fbd7435681869432021-06-10 22:06:252 days 15 hrs ago0x50f780ff8774d90d45bb14ee9bc4d8eb97eecd8bOUT 0x447ad4ef9293067e9fcbbbcd794bbd0fa6d6c4700 BNB0.0001798
0x435e6144291e2b957e3feba72afc1729d7e999b5b808a3c9c02e06cf1c472c3e81869352021-06-10 22:06:012 days 15 hrs ago0x50f780ff8774d90d45bb14ee9bc4d8eb97eecd8bOUT 0x33a669a350807552a005845c13a37662facb041b0 BNB0.00017956
0x4fe31c705b7157c1b8e5c8e0bbee7e9ae4cfc7f2a55f3a184fb763ddf661473a81869272021-06-10 22:05:372 days 15 hrs ago0x50f780ff8774d90d45bb14ee9bc4d8eb97eecd8bOUT 0x09f956f1e0c28f0b436663d44e0830b7853203d40 BNB0.00017962
0x7de8312159dbfc0aafbc006b85fdc8627f7b0a6fd8be6acbc70b30403e3b623c81869182021-06-10 22:05:102 days 15 hrs ago0x50f780ff8774d90d45bb14ee9bc4d8eb97eecd8bOUT 0x64cc7ed01fa6b6d3e587e9c89da04ddbebe075800 BNB0.00018048
0x3b5cc98731edaf59f0e2033031ca5da61540cd3dcce7b49e46c9d87702a9a98f81869082021-06-10 22:04:402 days 15 hrs ago0x50f780ff8774d90d45bb14ee9bc4d8eb97eecd8bOUT Fugu Finance: FUGU Token0 BNB0.00010456
0xbfb74fad111c74b1e3e2983967092420c5669bd6d9026c3c34d3073b1d1feb5b81868882021-06-10 22:03:402 days 15 hrs ago0x50f780ff8774d90d45bb14ee9bc4d8eb97eecd8bOUT 0x9a99ea92ed1e0c963078ac5c0867df85ec6d06b70 BNB0.000180745
0xf1fd3b1971676713f03c0e713142312f885e2096501d6cd42f5501f290b010cf81868822021-06-10 22:03:222 days 15 hrs ago0x50f780ff8774d90d45bb14ee9bc4d8eb97eecd8bOUT 0xd983a29d0e966a3c51b540085314057d3bb4a2270 BNB0.00018517
0xec56b42817e4b4d206a3d057f6f30654a718281f32a099cdb28cd14f562020a381868662021-06-10 22:02:342 days 15 hrs ago0x50f780ff8774d90d45bb14ee9bc4d8eb97eecd8bOUT 0xd78bd47a6934959583b47f081ce0f9fd5e0338d10 BNB0.00018048
0x9b1cda7323a85ab2111d41a93572a91cbb30ae2cf720957359c28fe51d5e672581868602021-06-10 22:02:162 days 15 hrs ago0x50f780ff8774d90d45bb14ee9bc4d8eb97eecd8bOUT 0x00e7daf0e5fd1f5331c92d09e3c825a8e4fc65150 BNB0.00017956
0x7623529a04769b9473e873e4670b1158f8414e573014a6cd265cc70ef04b713881868522021-06-10 22:01:522 days 15 hrs ago0x50f780ff8774d90d45bb14ee9bc4d8eb97eecd8bOUT 0x3f7200cc81d3fa6b8db6f8fcc2393d158e542f490 BNB0.00010536
0xa79a778ca4dfe25a0a589bde0876b510aa6447d4b071c612d08ef0cf5724dfd481868452021-06-10 22:01:312 days 15 hrs ago0x50f780ff8774d90d45bb14ee9bc4d8eb97eecd8bOUT 0xb89add4a17eadb084a065f9cace752a268dab8b30 BNB0.00010456
0x172b49e4b554ce812cc0943fbc57268101d7bae4d461fc0315db7f3bcfa550d981868412021-06-10 22:01:192 days 15 hrs ago0x50f780ff8774d90d45bb14ee9bc4d8eb97eecd8bOUT 0x47d3093210031664ec8d0ce29e3dcb616baa4e1a0 BNB0.00010486
0xdc94ba3973ae40fa97d140c902f25a1062d71ca9da65f808d71b694abfff55a181868272021-06-10 22:00:372 days 15 hrs ago0x50f780ff8774d90d45bb14ee9bc4d8eb97eecd8bOUT 0xe47d4874f671554ad6619e22fb5570c81413a14f0 BNB0.00018048
0x70f86ebf959933e7cdf525a11249bd80563244241facd6bba60dee28c58397af81868202021-06-10 22:00:162 days 15 hrs ago0x50f780ff8774d90d45bb14ee9bc4d8eb97eecd8bOUT 0x7207ab575dadd6025e2b334424c5ed10a02827780 BNB0.00010536
0xdb3086c5f770180a0c3deaf414be70c7f54634b9cef7997cc9c3b1fabe09222381868132021-06-10 21:59:552 days 15 hrs ago0x50f780ff8774d90d45bb14ee9bc4d8eb97eecd8bOUT 0xf40c1f421ee02a550afdd8712ef34dce97eec6f20 BNB0.00011017
0xebe7a814d3ddf36de47e764252c0f6639631fe8467c79cb9c0cb6e89895dab2681868072021-06-10 21:59:372 days 15 hrs ago0x50f780ff8774d90d45bb14ee9bc4d8eb97eecd8bOUT 0x74cfd109898fe125737e8081d2a8df4f318305cc0 BNB0.00010548
0x8a83a13067c80ccff8753dd3f3c65a364c3913ced1653211f3e3954dcd8cd1c181868012021-06-10 21:59:192 days 15 hrs ago0x50f780ff8774d90d45bb14ee9bc4d8eb97eecd8bOUT 0x7ea2b25c1a558c6f9b4649358183152b0ea4c03f0 BNB0.000168645
0xac6e5ac27f1a4d5480757230a763aa80eaf0bf17e6b6bbd1160efb3bbb5c638281867952021-06-10 21:59:012 days 15 hrs ago0x50f780ff8774d90d45bb14ee9bc4d8eb97eecd8bOUT 0xbbc9fa4b395fee68465c2cd4a88cde267a34ed2a0 BNB0.00016438
0x565f9e091c527a8e9fa147e82369f507c24c091bef1e72375f81b8f17c80d71181867822021-06-10 21:58:222 days 15 hrs ago0x50f780ff8774d90d45bb14ee9bc4d8eb97eecd8bOUT 0xf62723f8b7bf9962d9577f099e7bb1bdf97156100 BNB0.000105745
0xcdfc2ffec4d6456feb16a1fbab0e3dfd80effa8aeb8a5e9ad6c9b7dfe18b4df281867772021-06-10 21:58:072 days 15 hrs ago0x50f780ff8774d90d45bb14ee9bc4d8eb97eecd8bOUT 0x3edb027e03dd8348e4006f6a0b1659d4d6a38b1e0 BNB0.00010486
[ Download CSV Export 
Latest 1 internal transaction
Parent Txn Hash Block From To Value
0x6b1f04a9794846b6629d4e7c21ac8d286b2cab970d250b56fd54806969b480c177735862021-05-27 12:30:0817 days 1 hr ago PancakeSwap: Router v20x50f780ff8774d90d45bb14ee9bc4d8eb97eecd8b0.000307347716085709 BNB
[ Download CSV Export 
Loading

Contract Name:
0 BNB

Compiler Version
0

Optimization Enabled:
0 BNB

Other Settings:
-NA-
Block Transaction Gas Used Reward
Age Block Fee Address BC Fee Address Voting Power Jailed Incoming
Block Uncle Number Difficulty Gas Used Reward
Loading
Loading
Make sure to use the "Vote Down" button for any spammy posts, and the "Vote Up" for interesting conversations.